Location: Stoke Bliss
(52.2667°N, 2.5167°W)
Time: 17:53:23
(UTC+00:00)

N. Korean satellite - Pass Details

Date: 09 December 2021
Orbit: 446 x 492 km, 97.3° (Epoch: 16 January)

Event Time Altitude Azimuth Distance (km) Brightness Sun altitude
Rises 17:41:07 0° 213° (SSW) 2,508 11.0 -14.8°
Reaches altitude 10° 17:44:08 10° 242° (WSW) 1,625 10.6 -15.2°
Maximum altitude 17:45:49 13° 271° (W) 1,445 10.1 -15.4°
Drops below altitude 10° 17:47:30 10° 300° (WNW) 1,619 9.8 -15.7°
Sets 17:50:30 0° 330° (NNW) 2,490 10.4 -16.1°
